星链-32690 (STARLINK-32690)

导读

STARLINK-32690是美国SpaceX公司星链星座的第二代V2 Mini卫星,于2024年12月29日由猎鹰9号火箭发射升空,进入低地球轨道。它配备增强型相控阵天线与激光星间链路,单星容量超100 Gbps,可提供百兆以上宽带服务,具备更强的轨道机动和自主避碰能力,设计寿命5-7年。该卫星的入轨进一步扩充了星链星座规模,助力全球高速互联网覆盖,推动星链服务向航空、海事等领域扩展,是SpaceX批量部署第二代星链系统的重要组成部分。

基本信息
目录编号:
62453
目录名称:
STARLINK-32690
国际标识:
2024-251X
轨道中心:
EARTH
卫星名称:
星链-32690
卫星全名:
星链-32690 (STARLINK-32690)
卫星状态:
在轨 (已飞行532 天)
发射日期:
2024-12-29 UTC
国别 :
美国 (US)
星等 :
--
轨道信息
数据来源 国际轨道数据
星历时间: 2026-06-13T20:33:57+0800
21小时前
查看轨道信息
半长轴: 6853.337km
偏心率: 0.0001337
轨道倾角: 53.158°
近地点辐角 80.064°
升交点赤经 249.976°
平近点角 280.051°
近地点: 474.283km
远地点: 476.117km
周期: 94.105分钟
每日圈数: 15.302053
详细信息
固有亮度:
5
最大亮度:
2.5
卫星平台:
Starlink V1.0
覆盖范围:
全球
运营商:
太空探索技术公司
运营商所在国:
美国
制造商(研发单位):
太空探索技术公司
制造商所在国:
美国
使用方式:
暂无
卫星简介
Starlink 计划是 SpaceX 推出的全球卫星互联网项目,通过发射低轨道卫星,为全球尤其是偏远地区提供高速、低延迟的互联网服务。自 2019 年起,Starlink 已部署数千颗卫星,旨在缩小全球数字鸿沟,推动互联网普及。该项目还为军事、航空等行业提供通信支持,带来广泛经济效益。
2D轨道图
3D轨道图
轨道高度分析图
轨道倾角分析图
轨道综合分析图
查看轨道综合分析图